OBJECT L, 62387

Orbit data source: Space-Track

You're viewing an Uncataloged Satellite

Recently launched and/or uncataloged satellites may have evolving metadata. Metadata may include but not limited to: Owner, Maufacturer, Bus, Motor, and Mission.

OBJECT L, 62387 is a satellite in LEO that was launched on Sat, 21 Dec 2024 UTC via an FALCON 9 launch vehicle from the Air Force Western Test Range (AFWTR). Unknown objects in Earth's orbit typically refer to objects detected orbiting the Earth but have not yet been identified or cataloged. These objects could be anything from previously untracked satellites, spent rocket stages, debris from satellite collisions, or even natural meteoroids temporarily captured by Earth's gravity.

Loading next visibility...
Identifier
62387, 2024-247L
Orbit
LEO
Country
Flag of TBDTBD
Related business
None
Manufacturer
Unknown
Mission
Operational Amateur Technology
Bus & Motor
Unknown
Mass
Unknown
Launch date (UTC)
2024-12-21 (1 year ago)
Launch vehicle
FALCON 9
Launch site
Air Force Western Test Range (AFWTR)
Object type
Unknown
Shape & HBR
Box, 0.1 m
Radar Cross Section
0.015 m², Small (<0.1 m²)

Expand to show TLE details & history
Last TLE update: 10 hours ago

TLE from 10 hours ago
0 OBJECT L
1 62387U 24247L   26036.76471692  .00052396  00000-0  11973-2 0  9992
2 62387  44.9911 268.4289 0008761 189.1979 170.8750 15.42097605 63120
Epoch: 2026-02-05T18:21Z
TLE epoch observation values (Epoch: 2026-02-05T18:21:11.541Z)
Latitude
-0.00005°
Longitude
-142.7815°
Altitude
445.814 km
Speed
7.643 km/s
True Right ascension
17h 53m 42s
True Declination
0° 00' 00"
Sunlit
Object was in daylight at epoch
Visualization orbit readout
Latitude
Unknown
Longitude
Unknown
Altitude
Unknown
Speed
Unknown
Apparent Right ascension
Unknown
Apparent Declination
Unknown
Sunlit
N/A
Visualization observer readout
Local Sidereal Time
06:36:34
Azimuth
Unknown
Elevation
Unknown
Doppler factor
Unknown
Orbital elements
Apogee altitude
447.515 km
Perigee altitude
435.566 km
Semi-major axis
6,819.677 km
Eccentricity
0.00088
Inclination
44.9911°
RAAN
268.4289°
Arg. of periapsis
189.1979°
True anomaly
170.8909°
Mean anomaly
170.875°
Eccentric anomaly
170.88295°
Mean motion
3.85387 °/min
Orbital period
93.41 mins
BSTAR
0.0011973
Loading maneuver chart data...
Computing Atmospheric mass density...
Loading historical data...
Loading historical data...
Loading historical data...
Loading historical data...
Loading historical data...
Loading historical data...
Loading historical data...

Documentation

Showing up to 5 results
|